Weather in Perevalovo

Russia / Tyumen Oblast     57°05′01″N   65°14′01″E
temp.,
°C
wind,
m/s
gust,
m/s
humid.,
%
clouds,
%
prec.,
mm/h
press.,
hPa
HPBL,
m
22 october, fri
fri2223:00−4wsw24935 0.0 100668
02:00−4ssw3989100 0.0 1005176
05:00−2ssw41282100 0.0 1003420
08:00−1ssw4118998 0.0 1002587
11:00+1ssw51092100 0.1 1002696
14:00+2sw51091100 0.0 1002595
17:00+2ssw41198100 0.0 1002405
20:00+4ssw51296100 0.0 1002400
23 october, sat
sat2323:00+5ssw61596100 0.9 1000658
02:00+6sw51494100 0.4 999713
05:00+7sw61592100 1.5 999791
08:00+7wsw6158865 0.2 1001793
11:00+9wsw61281100 0.2 10031109
14:00+10wsw713741 0.0 10041375
17:00+9wsw614705 0.0 1006902
20:00+7wsw614795 0.0 1008727
24 october, sun
sun2423:00+6wsw513825 0.0 1010628
02:00+6wsw513845 0.0 1011608
05:00+4sw411885 0.0 1013330
08:00+3ssw2895100 0.0 1013185
11:00+7ssw3879100 0.0 1012349
14:00+8s41178100 0.1 1010913
17:00+8s61392100 1.1 1007926
20:00+9sw61489100 0.4 10051005
25 october, mon
mon2523:00+6w7147779 0.4 1007999
02:00+6w6136792 0.0 10091299
05:00+5w61070100 0.0 10111152
08:00+5w4866100 0.0 1013821
11:00+6sw4563100 0.0 1014838
14:00+6sw3564100 0.0 1014851
17:00+4ssw3675100 0.0 1013413
20:00+4ssw2681100 0.0 1012264
26 october, tue
tue2623:00+3s2585100 0.0 1011231
02:00+3wsw2497100 0.2 1010375
05:00+2wnw2599100 0.9 1009381
08:00+2wnw4996100 0.6 1009598
11:00+1nnw697084 0.7 10121046
14:00+2nw69565 0.0 10141160
17:00−1nw49635 0.0 1016650
20:00−2wnw39720 0.0 1018408